• Em Portugal
  • Lista de países
  • Para 7 dias
  • Temperatura da água
  • Mapas de satélite
  • Mapa do tempo
  • Widgets de tempo
  • user-avatar
    Iniciar Sessão

    Previsão horária em Kirish

    Hoje, 25 Setembro, Terça-feira

    Tempo Temperatura Precipitação Vento Pressão Humidade
    00:00 +25°C° 0 mm 1 m/s 734 mmHg 46%
    01:00 +25°C° 0 mm 1 m/s 734 mmHg 45%
    02:00 +24°C° 0 mm 1 m/s 734 mmHg 42%
    03:00 +24°C° 0 mm 1 m/s 734 mmHg 41%
    04:00 +24°C° 0 mm 1 m/s 734 mmHg 40%
    05:00 +24°C° 0 mm 1 m/s 734 mmHg 40%
    06:00 +26°C° 0 mm 1 m/s 734 mmHg 35%
    07:00 +28°C° 0 mm 1 m/s 734 mmHg 31%
    08:00 +31°C° 0 mm 1 m/s 734 mmHg 28%
    09:00 +32°C° 0 mm 1 m/s 734 mmHg 26%
    10:00 +33°C° 0 mm 1 m/s 734 mmHg 24%
    11:00 +35°C° 0 mm 2 m/s 734 mmHg 22%
    12:00 +36°C° 0 mm 2 m/s 734 mmHg 22%
    13:00 +36°C° 0 mm 3 m/s 734 mmHg 22%
    14:00 +36°C° 0 mm 3 m/s 734 mmHg 21%
    15:00 +35°C° 0 mm 3 m/s 733 mmHg 24%
    16:00 +34°C° 0 mm 3 m/s 733 mmHg 27%
    17:00 +32°C° 0 mm 2 m/s 733 mmHg 30%
    18:00 +30°C° 0 mm 2 m/s 733 mmHg 37%
    19:00 +28°C° 0 mm 2 m/s 734 mmHg 43%
    20:00 +26°C° 0 mm 1 m/s 734 mmHg 49%
    21:00 +26°C° 0 mm 2 m/s 734 mmHg 50%
    22:00 +25°C° 0 mm 2 m/s 734 mmHg 50%
    23:00 +25°C° 0 mm 2 m/s 735 mmHg 51%

    Amanhã, 26 Setembro, Quarta-feira

    Tempo Temperatura Precipitação Vento Pressão Humidade
    00:00 +24°C° 0 mm 2 m/s 735 mmHg 53%
    01:00 +24°C° 0 mm 3 m/s 735 mmHg 55%
    02:00 +24°C° 0 mm 3 m/s 735 mmHg 56%
    03:00 +22°C° 0 mm 3 m/s 735 mmHg 58%
    04:00 +22°C° 0 mm 3 m/s 734 mmHg 60%
    05:00 +21°C° 0 mm 4 m/s 734 mmHg 62%
    06:00 +22°C° 0 mm 4 m/s 734 mmHg 58%
    07:00 +23°C° 0 mm 4 m/s 735 mmHg 55%
    08:00 +25°C° 0 mm 4 m/s 735 mmHg 51%
    09:00 +26°C° 0 mm 4 m/s 735 mmHg 47%
    10:00 +28°C° 0 mm 3 m/s 735 mmHg 42%
    11:00 +30°C° 0 mm 3 m/s 735 mmHg 37%
    12:00 +30°C° 0 mm 3 m/s 735 mmHg 35%
    13:00 +31°C° 0 mm 3 m/s 735 mmHg 34%
    14:00 +31°C° 0 mm 2 m/s 734 mmHg 33%
    15:00 +30°C° 0 mm 2 m/s 734 mmHg 35%
    16:00 +29°C° 0 mm 2 m/s 734 mmHg 38%
    17:00 +28°C° 0 mm 3 m/s 734 mmHg 40%
    18:00 +27°C° 0 mm 3 m/s 734 mmHg 44%
    19:00 +26°C° 0 mm 3 m/s 735 mmHg 47%
    20:00 +24°C° 0 mm 3 m/s 735 mmHg 50%
    21:00 +22°C° 0 mm 3 m/s 735 mmHg 52%
    22:00 +22°C° 0 mm 3 m/s 736 mmHg 54%
    23:00 +21°C° 0 mm 4 m/s 736 mmHg 55%

    Depois de amanhã, 27 Setembro, Quinta-feira

    Tempo Temperatura Precipitação Vento Pressão Humidade
    00:00 +20°C° 0 mm 4 m/s 736 mmHg 56%
    01:00 +20°C° 0 mm 4 m/s 736 mmHg 57%
    02:00 +19°C° 0 mm 4 m/s 736 mmHg 58%
    03:00 +19°C° 0 mm 4 m/s 736 mmHg 58%
    04:00 +19°C° 0 mm 4 m/s 736 mmHg 59%
    05:00 +18°C° 0 mm 4 m/s 736 mmHg 59%
    06:00 +19°C° 0 mm 4 m/s 736 mmHg 56%
    07:00 +20°C° 0 mm 4 m/s 736 mmHg 52%
    08:00 +22°C° 0 mm 4 m/s 737 mmHg 49%
    09:00 +25°C° 0 mm 3 m/s 737 mmHg 43%
    10:00 +26°C° 0 mm 3 m/s 737 mmHg 37%
    11:00 +28°C° 0 mm 2 m/s 737 mmHg 32%
    12:00 +29°C° 0 mm 2 m/s 737 mmHg 30%
    13:00 +30°C° 0 mm 2 m/s 737 mmHg 28%
    14:00 +31°C° 0 mm 2 m/s 737 mmHg 26%
    15:00 +30°C° 0 mm 2 m/s 736 mmHg 28%
    16:00 +30°C° 0 mm 2 m/s 736 mmHg 30%
    17:00 +29°C° 0 mm 2 m/s 736 mmHg 31%
    18:00 +27°C° 0 mm 2 m/s 737 mmHg 35%
    19:00 +26°C° 0 mm 2 m/s 737 mmHg 39%
    20:00 +24°C° 0 mm 1 m/s 737 mmHg 42%
    21:00 +24°C° 0 mm 2 m/s 737 mmHg 43%
    22:00 +23°C° 0 mm 2 m/s 737 mmHg 44%
    23:00 +23°C° 0 mm 2 m/s 737 mmHg 46%

    28 Setembro, Sexta-feira

    Tempo Temperatura Precipitação Vento Pressão Humidade
    00:00 +23°C° 0 mm 2 m/s 737 mmHg 47%
    01:00 +21°C° 0 mm 2 m/s 737 mmHg 48%
    02:00 +21°C° 0 mm 2 m/s 737 mmHg 50%
    03:00 +21°C° 0 mm 2 m/s 737 mmHg 51%
    04:00 +20°C° 0 mm 2 m/s 737 mmHg 51%
    05:00 +20°C° 0 mm 2 m/s 737 mmHg 52%
    06:00 +23°C° 0 mm 2 m/s 737 mmHg 48%
    07:00 +24°C° 0 mm 2 m/s 737 mmHg 43%
    08:00 +26°C° 0 mm 2 m/s 737 mmHg 39%
    09:00 +28°C° 0 mm 2 m/s 737 mmHg 34%
    10:00 +29°C° 0 mm 1 m/s 737 mmHg 30%
    11:00 +31°C° 0 mm 1 m/s 737 mmHg 25%
    12:00 +31°C° 0 mm 2 m/s 737 mmHg 24%
    13:00 +32°C° 0 mm 2 m/s 736 mmHg 24%
    14:00 +33°C° 0 mm 3 m/s 736 mmHg 23%
    15:00 +31°C° 0 mm 2 m/s 736 mmHg 26%
    16:00 +30°C° 0 mm 2 m/s 735 mmHg 29%
    17:00 +29°C° 0 mm 2 m/s 735 mmHg 33%
    18:00 +28°C° 0 mm 2 m/s 736 mmHg 38%
    19:00 +26°C° 0 mm 1 m/s 736 mmHg 44%
    20:00 +24°C° 0 mm 1 m/s 736 mmHg 49%
    21:00 +24°C° 0 mm 1 m/s 736 mmHg 50%
    22:00 +23°C° 0 mm 1 m/s 736 mmHg 51%
    23:00 +23°C° 0 mm 1 m/s 736 mmHg 52%

    29 Setembro, Sábado

    Tempo Temperatura Precipitação Vento Pressão Humidade
    00:00 +22°C° 0 mm 1 m/s 736 mmHg 52%
    01:00 +22°C° 0 mm 1 m/s 735 mmHg 51%
    02:00 +22°C° 0 mm 1 m/s 735 mmHg 51%
    03:00 +22°C° 0 mm 1 m/s 735 mmHg 51%
    04:00 +22°C° 0 mm 1 m/s 735 mmHg 50%
    05:00 +21°C° 0 mm 1 m/s 735 mmHg 50%
    06:00 +23°C° 0 mm 1 m/s 736 mmHg 45%
    07:00 +25°C° 0 mm 1 m/s 736 mmHg 40%
    08:00 +27°C° 0 mm 1 m/s 736 mmHg 35%
    09:00 +28°C° 0 mm 1 m/s 736 mmHg 33%
    10:00 +29°C° 0 mm 1 m/s 736 mmHg 31%
    11:00 +31°C° 0 mm 2 m/s 736 mmHg 30%
    12:00 +31°C° 0 mm 2 m/s 735 mmHg 31%
    13:00 +31°C° 0 mm 3 m/s 735 mmHg 32%
    14:00 +33°C° 0 mm 3 m/s 734 mmHg 33%
    15:00 +30°C° 0 mm 3 m/s 734 mmHg 38%
    16:00 +29°C° 0 mm 3 m/s 734 mmHg 43%
    17:00 +28°C° 0 mm 3 m/s 734 mmHg 48%
    18:00 +27°C° 0 mm 2 m/s 735 mmHg 56%
    19:00 +25°C° 0 mm 2 m/s 735 mmHg 63%
    20:00 +24°C° 0 mm 1 m/s 735 mmHg 71%
    21:00 +23°C° 0 mm 1 m/s 735 mmHg 73%
    22:00 +23°C° 0 mm 1 m/s 735 mmHg 74%
    23:00 +23°C° 0 mm 1 m/s 735 mmHg 76%

    30 Setembro, Domingo

    Tempo Temperatura Precipitação Vento Pressão Humidade
    00:00 +22°C° 0 mm 1 m/s 735 mmHg 77%
    01:00 +22°C° 0 mm 1 m/s 735 mmHg 78%
    02:00 +22°C° 0 mm 1 m/s 735 mmHg 79%
    03:00 +21°C° 0 mm 1 m/s 735 mmHg 79%
    04:00 +21°C° 0 mm 1 m/s 735 mmHg 80%
    05:00 +21°C° 0 mm 1 m/s 735 mmHg 80%
    06:00 +22°C° 0 mm 1 m/s 735 mmHg 75%
    07:00 +24°C° 0 mm 1 m/s 735 mmHg 70%
    08:00 +25°C° 0 mm 2 m/s 735 mmHg 64%
    09:00 +26°C° 0 mm 2 m/s 735 mmHg 58%
    10:00 +27°C° 0 mm 2 m/s 735 mmHg 52%
    11:00 +29°C° 0 mm 3 m/s 735 mmHg 45%
    12:00 +29°C° 0 mm 3 m/s 735 mmHg 44%
    13:00 +29°C° 0 mm 4 m/s 735 mmHg 42%
    14:00 +30°C° 0 mm 4 m/s 734 mmHg 41%
    15:00 +29°C° 0 mm 4 m/s 734 mmHg 46%
    16:00 +28°C° 0 mm 3 m/s 734 mmHg 50%
    17:00 +27°C° 0 mm 3 m/s 734 mmHg 55%
    18:00 +25°C° 0.1 mm 2 m/s 735 mmHg 62%
    19:00 +24°C° 0.1 mm 2 m/s 735 mmHg 70%
    20:00 +23°C° 0.1 mm 1 m/s 735 mmHg 78%
    21:00 +22°C° 0 mm 1 m/s 735 mmHg 80%
    22:00 +22°C° 0 mm 1 m/s 735 mmHg 81%
    23:00 +21°C° 0 mm 1 m/s 735 mmHg 83%
    Mostrar mais